Back to catalog

STARLINK-5574

AliveCommunicationsVLEO
NORAD 55362·PAYLOAD·🇺🇸 United States

Launched Jan 26, 2023 from Cape Canaveral Space Force Station

Loading…

Next Passes (next 24 hours)

TLE

FreshSource: CelesTrak SupGP

Epoch: Sep 15, 2026, 02:25 UTC

1 55362C 23013AH  26258.10118056  .00027438  00000+0  99384-3 0  2582
2 55362  43.0034 298.8230 0001560 297.3694  58.8252 15.27562943    16

Track STARLINK-5574 in real time with AllMySat

Download on the App Store